N0YFE Weather Reports


time (UTC)temp
C
wind
direction
speed
KPH
gust
KPH
rain 1hr
cm
rain 24hr
cm
rain mn
cm
humidity
%
barometer
mb
20260502233005 18 348 3.2 8.0 0.00 0.00 0.00 32 1010.8
20260502231505 18 18 3.2 4.8 0.00 0.00 0.00 32 1011.0
20260502230002 18 338 4.8 11.3 0.00 0.00 0.00 33 1011.1
20260502224601 18 65 4.8 9.7 0.00 0.00 0.00 31 1011.3
20260502223059 18 99 6.4 12.9 0.00 0.00 0.00 31 1011.5
20260502221557 18 80 0.0 12.9 0.00 0.00 0.00 32 1011.5
20260502220056 18 72 8.0 22.5 0.00 0.00 0.00 30 1011.7
20260502214554 18 49 8.0 22.5 0.00 0.00 0.00 30 1011.9
20260502213052 18 103 4.8 12.9 0.00 0.00 0.00 30 1012.2
20260502211555 18 78 6.4 17.7 0.00 0.00 0.00 30 1012.4
20260502210046 18 80 8.0 19.3 0.00 0.00 0.00 30 1012.7
20260502204543 18 115 4.8 16.1 0.00 0.00 0.00 32 1013.0
20260502203041 17 60 4.8 17.7 0.00 0.00 0.00 31 1013.4
20260502201537 17 342 6.4 16.1 0.00 0.00 0.00 31 1013.7
20260502200039 17 60 8.0 17.7 0.00 0.00 0.00 30 1014.5
20260502194533 17 125 1.6 20.9 0.00 0.00 0.00 32 1014.7
20260502193027 16 60 6.4 14.5 0.00 0.00 0.00 31 1015.0
20260502191525 16 39 9.7 20.9 0.00 0.00 0.00 31 1015.4
20260502190022 16 112 6.4 17.7 0.00 0.00 0.00 31 1015.6
20260502184527 16 49 4.8 16.1 0.00 0.00 0.00 31 1015.5
20260502183016 16 36 6.4 19.3 0.00 0.00 0.00 33 1016.3
20260502181515 15 328 8.0 17.7 0.00 0.00 0.00 32 1016.4
20260502163111 13 108 4.8 22.5 0.00 0.00 0.00 35 1018.2
20260502161601 13 131 8.0 14.5 0.00 0.00 0.00 35 1017.9
20260502151551 11 79 6.4 12.9 0.00 0.00 0.00 39 1018.6
20260502123017 5 84 0.0 9.7 0.00 0.00 0.00 63 1019.2
20260502121514 4 52 3.2 9.7 0.00 0.00 0.00 64 1019.2
20260502114514 3 95 1.6 4.8 0.00 0.00 0.00 69 1019.3
20260502113011 2 94 0.0 4.8 0.00 0.00 0.00 70 1019.1
20260502111510 2 86 0.0 3.2 0.00 0.00 0.00 71 1019.1
20260502110009 2 84 0.0 0.0 0.00 0.00 0.00 71 1019.0
20260502104515 2 84 0.0 0.0 0.00 0.00 0.00 71 1019.0
20260502103008 2 84 0.0 0.0 0.00 0.00 0.00 72 1019.0
20260502101504 2 84 0.0 0.0 0.00 0.00 0.00 68 1019.1
20260502070041 5 91 0.0 4.8 0.00 0.00 0.00 54 1019.5
20260502064536 5 80 0.0 3.2 0.00 0.00 0.00 54 1019.1
20260502063048 5 84 0.0 0.0 0.00 0.00 0.00 53 1019.6
20260502061534 5 84 0.0 3.2 0.00 0.00 0.00 53 1019.2
20260502060035 5 89 0.0 1.6 0.00 0.00 0.00 54 1019.2
20260502054532 5 89 0.0 0.0 0.00 0.00 0.00 54 1019.3
20260502053031 5 89 0.0 0.0 0.00 0.00 0.00 53 1019.3
20260502051534 6 89 0.0 0.0 0.00 0.00 0.00 54 1019.4
20260502050028 6 89 0.0 1.6 0.00 0.00 0.00 51 1019.3
20260502044525 6 89 0.0 1.6 0.00 0.00 0.00 49 1019.6
20260502043025 6 82 0.0 3.2 0.00 0.00 0.00 49 1019.2
20260502041526 6 124 0.0 0.0 0.00 0.00 0.00 49 1019.2
20260502040024 6 124 0.0 1.6 0.00 0.00 0.00 50 1019.2
20260502034522 7 124 0.0 0.0 0.00 0.00 0.00 48 1019.2
20260502033021 7 124 0.0 0.0 0.00 0.00 0.00 46 1019.7
20260502031521 7 124 0.0 0.0 0.00 0.00 0.00 45 1019.2
20260502030023 7 124 0.0 1.6 0.00 0.00 0.00 44 1019.3
20260502024519 8 124 0.0 0.0 0.00 0.00 0.00 42 1019.7
20260502023029 8 124 0.0 3.2 0.00 0.00 0.00 40 1019.2
20260502021520 8 124 0.0 1.6 0.00 0.00 0.00 37 1019.1
20260502020024 9 124 0.0 1.6 0.00 0.00 0.00 36 1019.0
20260502014517 10 124 0.0 1.6 0.00 0.00 0.00 35 1018.8
20260502013017 10 124 0.0 1.6 0.00 0.00 0.00 34 1019.0
20260502011517 11 124 0.0 4.8 0.00 0.00 0.00 32 1018.7
20260502010016 11 115 1.6 6.4 0.00 0.00 0.00 30 1018.6
20260502004516 11 133 1.6 9.7 0.00 0.00 0.00 31 1019.0
20260502003017 11 131 0.0 6.4 0.00 0.00 0.00 31 1018.6
20260502001515 11 106 0.0 6.4 0.00 0.00 0.00 30 1019.0
20260502000017 11 139 0.0 4.8 0.00 0.00 0.00 32 1018.6
20260501234513 11 220 0.0 9.7 0.00 0.00 0.00 30 1018.6